,,Stat6,,Stat2,,Stat8,,Stat9,,Stat10,,Wind1,,Wind1,
time,status,PA1M_AVG,status,PR1M_SUM,status,RH1M_AVG,status,SR1M_AVG,status,TA1M_AVG,status,W1dAve1m,status,W1sAve1m,
2006-03-14, 00:00:00,VALID,918.23,VALID,0,VALID,98.6231,VALID,0,VALID,18.9067,VALID,138,VALID,0,
2006-03-14, 00:01:00,VALID,918.213,VALID,0,VALID,98.7452,VALID,-0.0169808,VALID,18.8935,VALID,138,VALID,0,
2006-03-14, 00:02:00,VALID,918.214,VALID,0,VALID,98.6651,VALID,0,VALID,18.8806,VALID,138,VALID,0,
2006-03-14, 00:03:00,VALID,918.214,VALID,0,VALID,98.1094,VALID,0.0169808,VALID,18.822,VALID,138,VALID,0,
2006-03-14, 00:04:00,VALID,918.206,VALID,0,VALID,97.7317,VALID,0.0339617,VALID,18.7154,VALID,123,VALID,0.0867686,
2006-03-14, 00:05:00,VALID,918.217,VALID,0,VALID,98.145,VALID,0.0169808,VALID,18.696,VALID,69,VALID,0.60556,
2006-03-14, 00:06:00,VALID,918.208,VALID,0,VALID,98.5761,VALID,0.0169808,VALID,18.7064,VALID,66,VALID,0.514915,
2006-03-14, 00:07:00,VALID,918.211,VALID,0,VALID,98.9588,VALID,0,VALID,18.7253,VALID,66,VALID,0.301829,
2006-03-14, 00:08:00,VALID,918.21,VALID,0,VALID,99.0491,VALID,0,VALID,18.7422,VALID,66,VALID,0.196841,
2006-03-14, 00:09:00,VALID,918.192,VALID,0,VALID,99.105,VALID,-0.0169808,VALID,18.7417,VALID,64,VALID,0.413132,
2006-03-14, 00:10:00,VALID,918.162,VALID,0,VALID,99.278,VALID,0,VALID,18.7461,VALID,59,VALID,0.324695,
2006-03-14, 00:11:00,VALID,918.124,VALID,0,VALID,99.5374,VALID,-0.0169808,VALID,18.7549,VALID,58,VALID,0.373884,
2006-03-14, 00:12:00,VALID,918.106,VALID,0,VALID,99.5666,VALID,0,VALID,18.7482,VALID,58,VALID,0.44401,
2006-03-14, 00:13:00,VALID,918.07,VALID,0,VALID,99.5717,VALID,0,VALID,18.7355,VALID,58,VALID,0.30888,
2006-03-14, 00:14:00,VALID,918.057,VALID,0,VALID,99.7663,VALID,-0.0849042,VALID,18.7528,VALID,58,VALID,0.239236,
2006-03-14, 00:15:00,VALID,918.049,VALID,0,VALID,99.8718,VALID,-0.0509425,VALID,18.7819,VALID,58,VALID,0.025436,
2006-03-14, 00:16:00,VALID,918.031,VALID,0,VALID,99.9329,VALID,-0.118866,VALID,18.7978,VALID,58,VALID,0.111235,
2006-03-14, 00:17:00,VALID,918.026,VALID,0,VALID,99.9542,VALID,-0.101885,VALID,18.8112,VALID,57,VALID,0.503811,
2006-03-14, 00:18:00,VALID,918.039,VALID,0,VALID,100,VALID,-0.101885,VALID,18.8338,VALID,50,VALID,0.785633,
2006-03-14, 00:19:00,VALID,918.022,VALID,0,VALID,100,VALID,-0.0849042,VALID,18.8497,VALID,38,VALID,1.15483,
2006-03-14, 00:20:00,VALID,918.013,VALID,0,VALID,100,VALID,-0.101885,VALID,18.9243,VALID,27,VALID,1.34413,
2006-03-14, 00:21:00,VALID,918.017,VALID,0,VALID,100,VALID,-0.0849042,VALID,18.97,VALID,20,VALID,1.1553,
2006-03-14, 00:22:00,VALID,917.992,VALID,0,VALID,100,VALID,-0.101885,VALID,18.9988,VALID,20,VALID,0.794398,
2006-03-14, 00:23:00,VALID,917.98,VALID,0,VALID,100,VALID,-0.0509425,VALID,19.0267,VALID,26,VALID,0.590909,
2006-03-14, 00:24:00,VALID,917.956,VALID,0,VALID,99.9952,VALID,0.0169808,VALID,19.0615,VALID,31,VALID,0.65734,
2006-03-14, 00:25:00,VALID,917.939,VALID,0,VALID,99.8286,VALID,0.0169808,VALID,19.0936,VALID,26,VALID,0.343359,
2006-03-14, 00:26:00,VALID,917.931,VALID,0,VALID,99.648,VALID,0,VALID,19.1231,VALID,26,VALID,0.0617378,
2006-03-14, 00:27:00,VALID,917.914,VALID,0,VALID,99.339,VALID,0.0509425,VALID,19.1227,VALID,26,VALID,0.00213068,
2006-03-14, 00:28:00,VALID,917.895,VALID,0,VALID,99.1089,VALID,0,VALID,19.113,VALID,26,VALID,0.00520833,
2006-03-14, 00:29:00,VALID,917.866,VALID,0,VALID,98.9842,VALID,0,VALID,19.1065,VALID,26,VALID,0.0417259,
2006-03-14, 00:30:00,VALID,917.844,VALID,0,VALID,98.9105,VALID,0,VALID,19.1333,VALID,26,VALID,0,
2006-03-14, 00:31:00,VALID,917.793,VALID,0,VALID,98.8647,VALID,0.0169808,VALID,19.1266,VALID,26,VALID,0.00111607,
2006-03-14, 00:32:00,VALID,917.76,VALID,0,VALID,98.8952,VALID,0.0169808,VALID,19.1194,VALID,26,VALID,0.197218,
2006-03-14, 00:33:00,VALID,917.754,VALID,0,VALID,98.7719,VALID,0,VALID,19.1323,VALID,33,VALID,0.575335,
2006-03-14, 00:34:00,VALID,917.734,VALID,0,VALID,98.4781,VALID,0,VALID,19.1003,VALID,206,VALID,0.59304,
2006-03-14, 00:35:00,VALID,917.712,VALID,0,VALID,98.5163,VALID,-0.0169808,VALID,19.0839,VALID,205,VALID,0.326029,
2006-03-14, 00:36:00,VALID,917.69,VALID,0,VALID,98.7948,VALID,0.0339617,VALID,19.1197,VALID,212,VALID,0.336719,
2006-03-14, 00:37:00,VALID,917.669,VALID,0,VALID,98.894,VALID,0.0339617,VALID,19.1584,VALID,212,VALID,0.283967,
2006-03-14, 00:38:00,VALID,917.672,VALID,0,VALID,98.8965,VALID,0,VALID,19.1937,VALID,212,VALID,0.110069,
2006-03-14, 00:39:00,VALID,917.645,VALID,0,VALID,98.7846,VALID,0.0509425,VALID,19.2357,VALID,212,VALID,0,
2006-03-14, 00:40:00,VALID,917.645,VALID,0,VALID,98.501,VALID,0.0339617,VALID,19.2293,VALID,212,VALID,0.0814986,
2006-03-14, 00:41:00,VALID,917.629,VALID,0,VALID,98.0077,VALID,0.0169808,VALID,19.1873,VALID,212,VALID,0.283398,
2006-03-14, 00:42:00,VALID,917.603,VALID,0,VALID,98.4006,VALID,0.0339617,VALID,19.2099,VALID,212,VALID,0.219638,
2006-03-14, 00:43:00,VALID,917.579,VALID,0,VALID,97.897,VALID,0.0339617,VALID,19.1709,VALID,212,VALID,0.0259766,
2006-03-14, 00:44:00,VALID,917.572,VALID,0,VALID,97.5995,VALID,0.0169808,VALID,19.0996,VALID,212,VALID,0.233045,
2006-03-14, 00:45:00,VALID,917.54,VALID,0,VALID,98.3701,VALID,0.0169808,VALID,19.1522,VALID,212,VALID,0.0793403,
2006-03-14, 00:46:00,VALID,917.523,VALID,0,VALID,98.262,VALID,0,VALID,19.1679,VALID,212,VALID,0.173785,
2006-03-14, 00:47:00,VALID,917.527,VALID,0,VALID,96.9281,VALID,0,VALID,19.0426,VALID,212,VALID,0.255632,
2006-03-14, 00:48:00,VALID,917.548,VALID,0,VALID,97.1964,VALID,0.0169808,VALID,18.9586,VALID,212,VALID,0.213415,
2006-03-14, 00:49:00,VALID,917.541,VALID,0,VALID,97.663,VALID,0.0169808,VALID,18.9191,VALID,212,VALID,0,
2006-03-14, 00:50:00,VALID,917.538,VALID,0,VALID,98.0318,VALID,0,VALID,18.9295,VALID,212,VALID,0.140439,
2006-03-14, 00:51:00,VALID,917.538,VALID,0,VALID,98.07,VALID,0,VALID,18.8834,VALID,212,VALID,0.314276,
2006-03-14, 00:52:00,VALID,917.535,VALID,0,VALID,98.3408,VALID,0.0169808,VALID,18.8938,VALID,212,VALID,0.288885,
2006-03-14, 00:53:00,VALID,917.514,VALID,0,VALID,98.6371,VALID,-0.0509425,VALID,18.8878,VALID,177,VALID,0.332127,
2006-03-14, 00:54:00,VALID,917.489,VALID,0,VALID,98.8215,VALID,-0.0849042,VALID,18.8917,VALID,117,VALID,0.459162,
2006-03-14, 00:55:00,VALID,917.452,VALID,0,VALID,99.353,VALID,-0.0679233,VALID,18.9176,VALID,117,VALID,0.275699,
2006-03-14, 00:56:00,VALID,917.419,VALID,0,VALID,99.3034,VALID,-0.0849042,VALID,18.9432,VALID,117,VALID,0.295387,
2006-03-14, 00:57:00,VALID,917.396,VALID,0,VALID,98.9525,VALID,-0.0679233,VALID,18.9178,VALID,117,VALID,0.438388,
2006-03-14, 00:58:00,VALID,917.378,VALID,0,VALID,99.0122,VALID,-0.101885,VALID,18.8716,VALID,124,VALID,0.649503,
2006-03-14, 00:59:00,VALID,917.359,VALID,0,VALID,99.1953,VALID,-0.0849042,VALID,18.8682,VALID,134,VALID,0.771439,
2006-03-14, 01:00:00,VALID,917.333,VALID,0,VALID,99.367,VALID,-0.0679233,VALID,18.8686,VALID,135,VALID,0.775073,
2006-03-14, 01:01:00,VALID,917.319,VALID,0,VALID,99.4102,VALID,-0.0849042,VALID,18.8825,VALID,135,VALID,0.510538,
2006-03-14, 01:02:00,VALID,917.293,VALID,0,VALID,99.306,VALID,-0.0849042,VALID,18.8793,VALID,136,VALID,0.480646,
2006-03-14, 01:03:00,VALID,917.272,VALID,0,VALID,99.4204,VALID,-0.0849042,VALID,18.8661,VALID,130,VALID,0.496094,
2006-03-14, 01:04:00,VALID,917.246,VALID,0,VALID,99.7243,VALID,-0.118866,VALID,18.9081,VALID,127,VALID,0.432478,
2006-03-14, 01:05:00,VALID,917.218,VALID,0,VALID,99.5476,VALID,-0.135847,VALID,18.9143,VALID,123,VALID,0.22154,
2006-03-14, 01:06:00,VALID,917.191,VALID,0,VALID,99.002,VALID,-0.118866,VALID,18.8597,VALID,120,VALID,0.0363372,
2006-03-14, 01:07:00,VALID,917.189,VALID,0,VALID,98.777,VALID,-0.0849042,VALID,18.8177,VALID,120,VALID,0.290483,
2006-03-14, 01:08:00,VALID,917.168,VALID,0,VALID,98.6905,VALID,-0.0509425,VALID,18.7521,VALID,120,VALID,0.163876,
2006-03-14, 01:09:00,VALID,917.154,VALID,0,VALID,98.7643,VALID,-0.0339617,VALID,18.7387,VALID,119,VALID,0.415179,
2006-03-14, 01:10:00,VALID,917.167,VALID,0,VALID,98.8367,VALID,-0.0339617,VALID,18.6935,VALID,117,VALID,0.211868,
2006-03-14, 01:11:00,VALID,917.168,VALID,0,VALID,99.4395,VALID,-0.0169808,VALID,18.7392,VALID,117,VALID,0.204459,
2006-03-14, 01:12:00,VALID,917.185,VALID,0,VALID,99.9423,VALID,-0.0339617,VALID,18.7934,VALID,117,VALID,0.374399,
2006-03-14, 01:13:00,VALID,917.193,VALID,0,VALID,99.9954,VALID,0,VALID,18.8322,VALID,117,VALID,0.257622,
2006-03-14, 01:14:00,VALID,917.202,VALID,0,VALID,99.8693,VALID,0,VALID,18.8493,VALID,117,VALID,0.38548,
2006-03-14, 01:15:00,VALID,917.205,VALID,0,VALID,99.8146,VALID,-0.0169808,VALID,18.855,VALID,117,VALID,0.27381,
2006-03-14, 01:16:00,VALID,917.21,VALID,0,VALID,99.6925,VALID,0,VALID,18.852,VALID,117,VALID,0.0207122,
2006-03-14, 01:17:00,VALID,917.199,VALID,0,VALID,99.5755,VALID,-0.0169808,VALID,18.8488,VALID,117,VALID,0.0872713,
2006-03-14, 01:18:00,VALID,917.207,VALID,0,VALID,99.4713,VALID,0,VALID,18.8386,VALID,117,VALID,0.218369,
2006-03-14, 01:19:00,VALID,917.211,VALID,0,VALID,99.4242,VALID,0.0169808,VALID,18.8314,VALID,117,VALID,0.306996,
2006-03-14, 01:20:00,VALID,917.196,VALID,0,VALID,99.4687,VALID,0.0169808,VALID,18.8418,VALID,117,VALID,0.202172,
2006-03-14, 01:21:00,VALID,917.213,VALID,0,VALID,99.3746,VALID,0,VALID,18.819,VALID,117,VALID,0.290865,
2006-03-14, 01:22:00,VALID,917.235,VALID,0,VALID,99.3288,VALID,-0.0169808,VALID,18.816,VALID,113,VALID,0.369606,
2006-03-14, 01:23:00,VALID,917.244,VALID,0,VALID,99.3021,VALID,0,VALID,18.8093,VALID,111,VALID,0.090554,
2006-03-14, 01:24:00,VALID,917.244,VALID,0,VALID,99.0389,VALID,-0.0169808,VALID,18.78,VALID,111,VALID,0.0748264,
2006-03-14, 01:25:00,VALID,917.239,VALID,0,VALID,98.7897,VALID,-0.0169808,VALID,18.7357,VALID,111,VALID,0.224414,
2006-03-14, 01:26:00,VALID,917.232,VALID,0,VALID,99.133,VALID,0,VALID,18.7258,VALID,81,VALID,0.417259,
2006-03-14, 01:27:00,VALID,917.218,VALID,0,VALID,99.4039,VALID,0,VALID,18.7452,VALID,78,VALID,0.188565,
2006-03-14, 01:28:00,VALID,917.223,VALID,0,VALID,99.6391,VALID,0,VALID,18.7678,VALID,78,VALID,0.370808,
2006-03-14, 01:29:00,VALID,917.208,VALID,0,VALID,99.6417,VALID,-0.0169808,VALID,18.7551,VALID,78,VALID,0.258765,
2006-03-14, 01:30:00,VALID,917.214,VALID,0,VALID,99.7714,VALID,0,VALID,18.7678,VALID,77,VALID,0.279433,
2006-03-14, 01:31:00,VALID,917.208,VALID,0,VALID,99.723,VALID,-0.0339617,VALID,18.7646,VALID,75,VALID,0.324219,
2006-03-14, 01:32:00,VALID,917.19,VALID,0,VALID,99.9448,VALID,-0.0169808,VALID,18.8234,VALID,66,VALID,0.368823,
2006-03-14, 01:33:00,VALID,917.182,VALID,0,VALID,99.969,VALID,0,VALID,18.8488,VALID,66,VALID,0.129573,
2006-03-14, 01:34:00,VALID,917.176,VALID,0,VALID,99.9634,VALID,-0.0169808,VALID,18.8518,VALID,66,VALID,0.0322266,
2006-03-14, 01:35:00,VALID,917.174,VALID,0,VALID,99.9781,VALID,-0.0169808,VALID,18.8843,VALID,66,VALID,0.0464939,
2006-03-14, 01:36:00,VALID,917.172,VALID,0,VALID,99.8438,VALID,0,VALID,18.8808,VALID,66,VALID,0.0123547,
2006-03-14, 01:37:00,VALID,917.172,VALID,0,VALID,99.7904,VALID,-0.0339617,VALID,18.8808,VALID,66,VALID,0.0354959,
2006-03-14, 01:38:00,VALID,917.187,VALID,0,VALID,99.7434,VALID,-0.0339617,VALID,18.8774,VALID,66,VALID,0.268864,
2006-03-14, 01:39:00,VALID,917.182,VALID,0,VALID,99.737,VALID,0,VALID,18.8808,VALID,66,VALID,0.396354,
2006-03-14, 01:40:00,VALID,917.168,VALID,0,VALID,99.662,VALID,0,VALID,18.8712,VALID,76,VALID,0.553819,
2006-03-14, 01:41:00,VALID,917.139,VALID,0,VALID,99.6696,VALID,-0.0339617,VALID,18.8908,VALID,93,VALID,0.727896,
2006-03-14, 01:42:00,VALID,917.135,VALID,0,VALID,99.5717,VALID,-0.0169808,VALID,18.9042,VALID,101,VALID,0.805398,
2006-03-14, 01:43:00,VALID,917.126,VALID,0,VALID,99.4764,VALID,-0.0169808,VALID,18.9037,VALID,108,VALID,0.894886,
2006-03-14, 01:44:00,VALID,917.14,VALID,0,VALID,99.428,VALID,0,VALID,18.8938,VALID,112,VALID,0.99314,
2006-03-14, 01:45:00,VALID,917.149,VALID,0,VALID,99.3339,VALID,-0.0169808,VALID,18.8811,VALID,122,VALID,1.04671,
2006-03-14, 01:46:00,VALID,917.16,VALID,0,VALID,99.2704,VALID,0,VALID,18.8448,VALID,137,VALID,1.28686,
2006-03-14, 01:47:00,VALID,917.176,VALID,0,VALID,99.306,VALID,-0.0509425,VALID,18.8068,VALID,148,VALID,1.26181,
2006-03-14, 01:48:00,VALID,917.171,VALID,0,VALID,99.4611,VALID,-0.0169808,VALID,18.768,VALID,148,VALID,1.11604,
2006-03-14, 01:49:00,VALID,917.163,VALID,0,VALID,99.5488,VALID,0,VALID,18.7394,VALID,146,VALID,1.10792,
2006-03-14, 01:50:00,VALID,917.15,VALID,0,VALID,99.7002,VALID,-0.0339617,VALID,18.6543,VALID,128,VALID,1.08691,
2006-03-14, 01:51:00,VALID,917.128,VALID,0,VALID,99.9054,VALID,-0.0169808,VALID,18.6356,VALID,111,VALID,1.24028,
2006-03-14, 01:52:00,VALID,917.113,VALID,0,VALID,100,VALID,0,VALID,18.6614,VALID,119,VALID,1.55983,
2006-03-14, 01:53:00,VALID,917.09,VALID,0,VALID,100,VALID,-0.0169808,VALID,18.723,VALID,123,VALID,1.65795,
2006-03-14, 01:54:00,VALID,917.082,VALID,0,VALID,100,VALID,-0.0339617,VALID,18.7491,VALID,121,VALID,1.59766,
2006-03-14, 01:55:00,VALID,917.086,VALID,0,VALID,100,VALID,-0.0169808,VALID,18.7616,VALID,122,VALID,1.50018,
2006-03-14, 01:56:00,VALID,917.088,VALID,0,VALID,100,VALID,0,VALID,18.7646,VALID,119,VALID,1.26265,
2006-03-14, 01:57:00,VALID,917.11,VALID,0,VALID,100,VALID,-0.0509425,VALID,18.7516,VALID,125,VALID,1.09066,
2006-03-14, 01:58:00,VALID,917.115,VALID,0,VALID,100,VALID,0,VALID,18.732,VALID,126,VALID,0.939583,
2006-03-14, 01:59:00,VALID,917.143,VALID,0,VALID,100,VALID,-0.0339617,VALID,18.7069,VALID,126,VALID,0.840701,
2006-03-14, 02:00:00,VALID,917.141,VALID,0,VALID,100,VALID,-0.0339617,VALID,18.6776,VALID,118,VALID,1.03506,
2006-03-14, 02:01:00,VALID,917.141,VALID,0,VALID,100,VALID,-0.0509425,VALID,18.6746,VALID,108,VALID,1.02143,
2006-03-14, 02:02:00,VALID,917.129,VALID,0,VALID,100,VALID,-0.0339617,VALID,18.694,VALID,106,VALID,1.0891,
2006-03-14, 02:03:00,VALID,917.126,VALID,0,VALID,100,VALID,-0.0169808,VALID,18.6977,VALID,93,VALID,1.14317,
2006-03-14, 02:04:00,VALID,917.106,VALID,0,VALID,100,VALID,-0.0169808,VALID,18.6847,VALID,76,VALID,1.03534,
2006-03-14, 02:05:00,VALID,917.097,VALID,0,VALID,100,VALID,-0.0169808,VALID,18.5966,VALID,70,VALID,1.03871,
2006-03-14, 02:06:00,VALID,917.088,VALID,0,VALID,100,VALID,-0.0169808,VALID,18.5673,VALID,72,VALID,1.06831,
2006-03-14, 02:07:00,VALID,917.086,VALID,0,VALID,100,VALID,-0.0339617,VALID,18.6227,VALID,72,VALID,0.956944,
2006-03-14, 02:08:00,VALID,917.089,VALID,0,VALID,100,VALID,-0.0339617,VALID,18.6843,VALID,72,VALID,0.791853,
2006-03-14, 02:09:00,VALID,917.071,VALID,0,VALID,100,VALID,0,VALID,18.7302,VALID,83,VALID,0.596423,
2006-03-14, 02:10:00,VALID,917.063,VALID,0,VALID,100,VALID,0,VALID,18.7327,VALID,89,VALID,0.490412,
2006-03-14, 02:11:00,VALID,917.045,VALID,0,VALID,100,VALID,-0.0169808,VALID,18.7392,VALID,89,VALID,0.242746,
2006-03-14, 02:12:00,VALID,917.037,VALID,0,VALID,100,VALID,-0.0169808,VALID,18.7263,VALID,89,VALID,0.0611328,
2006-03-14, 02:13:00,VALID,917.035,VALID,0,VALID,100,VALID,-0.0169808,VALID,18.7401,VALID,89,VALID,0,
2006-03-14, 02:14:00,VALID,917.029,VALID,0,VALID,100,VALID,0,VALID,18.736,VALID,89,VALID,0,
2006-03-14, 02:15:00,VALID,917.013,VALID,0,VALID,100,VALID,-0.0169808,VALID,18.7427,VALID,89,VALID,0,
2006-03-14, 02:16:00,VALID,917.019,VALID,0,VALID,100,VALID,-0.0509425,VALID,18.7394,VALID,89,VALID,0,
2006-03-14, 02:17:00,VALID,917.008,VALID,0,VALID,100,VALID,-0.0849042,VALID,18.72,VALID,89,VALID,0.135045,
2006-03-14, 02:18:00,VALID,917.006,VALID,0,VALID,100,VALID,-0.0509425,VALID,18.7272,VALID,89,VALID,0.373698,
2006-03-14, 02:19:00,VALID,916.991,VALID,0,VALID,100,VALID,-0.0509425,VALID,18.7002,VALID,89,VALID,0.452431,
2006-03-14, 02:20:00,VALID,916.981,VALID,0,VALID,100,VALID,-0.0339617,VALID,18.6905,VALID,89,VALID,0.429102,
2006-03-14, 02:21:00,VALID,916.966,VALID,0,VALID,100,VALID,-0.0339617,VALID,18.6972,VALID,89,VALID,0.568004,
2006-03-14, 02:22:00,VALID,916.939,VALID,0,VALID,100,VALID,0,VALID,18.6974,VALID,91,VALID,0.652158,
2006-03-14, 02:23:00,VALID,916.918,VALID,0,VALID,100,VALID,-0.0679233,VALID,18.6974,VALID,102,VALID,0.755504,
2006-03-14, 02:24:00,VALID,916.908,VALID,0,VALID,100,VALID,-0.0509425,VALID,18.7078,VALID,116,VALID,0.82309,
2006-03-14, 02:25:00,VALID,916.895,VALID,0,VALID,100,VALID,-0.0509425,VALID,18.7039,VALID,117,VALID,0.653274,
2006-03-14, 02:26:00,VALID,916.887,VALID,0,VALID,100,VALID,-0.0679233,VALID,18.7235,VALID,117,VALID,0.749023,
2006-03-14, 02:27:00,VALID,916.887,VALID,0,VALID,100,VALID,-0.0339617,VALID,18.7196,VALID,126,VALID,0.761914,
2006-03-14, 02:28:00,VALID,916.878,VALID,0,VALID,100,VALID,-0.0339617,VALID,18.7424,VALID,128,VALID,0.784624,
2006-03-14, 02:29:00,VALID,916.875,VALID,0,VALID,100,VALID,-0.0169808,VALID,18.7717,VALID,141,VALID,0.686328,
2006-03-14, 02:30:00,VALID,916.882,VALID,0,VALID,100,VALID,-0.0339617,VALID,18.8047,VALID,143,VALID,0.633539,
2006-03-14, 02:31:00,VALID,916.899,VALID,0,VALID,100,VALID,-0.0339617,VALID,18.8232,VALID,146,VALID,0.621094,
2006-03-14, 02:32:00,VALID,916.919,VALID,0,VALID,100,VALID,0,VALID,18.853,VALID,152,VALID,0.604167,
2006-03-14, 02:33:00,VALID,916.92,VALID,0,VALID,100,VALID,-0.0169808,VALID,18.8823,VALID,168,VALID,0.967634,
2006-03-14, 02:34:00,VALID,916.918,VALID,0,VALID,100,VALID,-0.0169808,VALID,18.8813,VALID,170,VALID,0.836301,
2006-03-14, 02:35:00,VALID,916.912,VALID,0,VALID,100,VALID,-0.0169808,VALID,18.9109,VALID,171,VALID,0.370313,
2006-03-14, 02:36:00,VALID,916.902,VALID,0,VALID,99.8413,VALID,-0.0339617,VALID,18.8942,VALID,171,VALID,0.147294,
2006-03-14, 02:37:00,VALID,916.885,VALID,0,VALID,99.6747,VALID,0,VALID,18.888,VALID,171,VALID,0.0892079,
2006-03-14, 02:38:00,VALID,916.884,VALID,0,VALID,99.6874,VALID,-0.0169808,VALID,18.9009,VALID,171,VALID,0,
2006-03-14, 02:39:00,VALID,916.869,VALID,0,VALID,99.5603,VALID,-0.0169808,VALID,18.8977,VALID,171,VALID,0,
2006-03-14, 02:40:00,VALID,916.875,VALID,0,VALID,99.5272,VALID,-0.0169808,VALID,18.8883,VALID,171,VALID,0,
2006-03-14, 02:41:00,VALID,916.887,VALID,0,VALID,99.5018,VALID,-0.0339617,VALID,18.895,VALID,171,VALID,0,
2006-03-14, 02:42:00,VALID,916.898,VALID,0,VALID,99.5183,VALID,-0.0509425,VALID,18.8982,VALID,171,VALID,0,
2006-03-14, 02:43:00,VALID,916.893,VALID,0,VALID,99.4942,VALID,-0.0509425,VALID,18.9141,VALID,171,VALID,0,
2006-03-14, 02:44:00,VALID,916.892,VALID,0,VALID,99.5209,VALID,-0.0339617,VALID,18.9466,VALID,171,VALID,0.0200893,
2006-03-14, 02:45:00,VALID,916.866,VALID,0,VALID,99.3835,VALID,-0.0339617,VALID,18.9591,VALID,171,VALID,0,
2006-03-14, 02:46:00,VALID,916.844,VALID,0,VALID,99.2869,VALID,-0.0339617,VALID,18.9787,VALID,171,VALID,0,
2006-03-14, 02:47:00,VALID,916.813,VALID,0,VALID,99.0974,VALID,-0.0339617,VALID,18.9882,VALID,171,VALID,0,
2006-03-14, 02:48:00,VALID,916.796,VALID,0,VALID,98.9041,VALID,-0.0679233,VALID,19.0011,VALID,171,VALID,0,
2006-03-14, 02:49:00,VALID,916.779,VALID,0,VALID,98.3192,VALID,-0.0169808,VALID,18.9658,VALID,171,VALID,0,
2006-03-14, 02:50:00,VALID,916.763,VALID,0,VALID,97.7686,VALID,-0.0509425,VALID,18.8786,VALID,171,VALID,0,
2006-03-14, 02:51:00,VALID,916.752,VALID,0,VALID,97.9962,VALID,-0.0339617,VALID,18.8269,VALID,171,VALID,0,
2006-03-14, 02:52:00,VALID,916.741,VALID,0,VALID,98.295,VALID,-0.0509425,VALID,18.8207,VALID,171,VALID,0,
2006-03-14, 02:53:00,VALID,916.721,VALID,0,VALID,98.5481,VALID,-0.0339617,VALID,18.8241,VALID,171,VALID,0,
2006-03-14, 02:54:00,VALID,916.702,VALID,0,VALID,98.8825,VALID,-0.0509425,VALID,18.8259,VALID,171,VALID,0,
2006-03-14, 02:55:00,VALID,916.7,VALID,0,VALID,99.1394,VALID,-0.0509425,VALID,18.8654,VALID,171,VALID,0,
2006-03-14, 02:56:00,VALID,916.708,VALID,0,VALID,99.2055,VALID,-0.0339617,VALID,18.889,VALID,171,VALID,0,
2006-03-14, 02:57:00,VALID,916.731,VALID,0,VALID,99.0605,VALID,-0.0509425,VALID,18.885,VALID,171,VALID,0.0180288,
2006-03-14, 02:58:00,VALID,916.744,VALID,0,VALID,98.8545,VALID,0,VALID,18.8555,VALID,171,VALID,0.299055,
2006-03-14, 02:59:00,VALID,916.767,VALID,0,VALID,99.03,VALID,-0.0169808,VALID,18.8331,VALID,164,VALID,0.446615,
2006-03-14, 03:00:00,VALID,916.777,VALID,0,VALID,99.1724,VALID,-0.0169808,VALID,18.8232,VALID,118,VALID,0.706759,
2006-03-14, 03:01:00,VALID,916.789,VALID,0,VALID,99.1724,VALID,-0.0509425,VALID,18.7911,VALID,94,VALID,0.912246,
2006-03-14, 03:02:00,VALID,916.795,VALID,0,VALID,99.5628,VALID,-0.0339617,VALID,18.7876,VALID,87,VALID,1.07485,
2006-03-14, 03:03:00,VALID,916.803,VALID,0,VALID,99.8388,VALID,-0.0679233,VALID,18.817,VALID,87,VALID,1.07205,
2006-03-14, 03:04:00,VALID,916.793,VALID,0,VALID,99.8197,VALID,-0.0339617,VALID,18.8659,VALID,87,VALID,1.00648,
2006-03-14, 03:05:00,VALID,916.794,VALID,0,VALID,99.517,VALID,-0.0169808,VALID,18.9007,VALID,95,VALID,0.835392,
2006-03-14, 03:06:00,VALID,916.78,VALID,0,VALID,98.88,VALID,-0.0849042,VALID,18.8942,VALID,107,VALID,0.78782,
2006-03-14, 03:07:00,VALID,916.768,VALID,0,VALID,98.468,VALID,-0.0339617,VALID,18.8525,VALID,113,VALID,0.949886,
2006-03-14, 03:08:00,VALID,916.764,VALID,0,VALID,98.379,VALID,-0.0169808,VALID,18.8008,VALID,116,VALID,0.660442,
2006-03-14, 03:09:00,VALID,916.751,VALID,0,VALID,98.6969,VALID,0.0169808,VALID,18.7452,VALID,126,VALID,0.653832,
2006-03-14, 03:10:00,VALID,916.734,VALID,0,VALID,99.0669,VALID,0,VALID,18.7196,VALID,141,VALID,1.0903,
2006-03-14, 03:11:00,VALID,916.718,VALID,0,VALID,99.2958,VALID,-0.0339617,VALID,18.6845,VALID,139,VALID,1.05851,
2006-03-14, 03:12:00,VALID,916.706,VALID,0,VALID,99.5476,VALID,0,VALID,18.616,VALID,139,VALID,1.2104,
2006-03-14, 03:13:00,VALID,916.701,VALID,0,VALID,99.7459,VALID,-0.0339617,VALID,18.5712,VALID,138,VALID,1.07496,
2006-03-14, 03:14:00,VALID,916.698,VALID,0,VALID,99.9603,VALID,0,VALID,18.5101,VALID,141,VALID,0.944754,
2006-03-14, 03:15:00,VALID,916.687,VALID,0,VALID,100,VALID,0,VALID,18.4545,VALID,140,VALID,0.938244,
2006-03-14, 03:16:00,VALID,916.696,VALID,0,VALID,100,VALID,-0.0169808,VALID,18.4425,VALID,140,VALID,0.852865,
2006-03-14, 03:17:00,VALID,916.701,VALID,0,VALID,100,VALID,-0.0169808,VALID,18.4069,VALID,138,VALID,0.811481,
2006-03-14, 03:18:00,VALID,916.699,VALID,0,VALID,100,VALID,-0.0509425,VALID,18.3836,VALID,138,VALID,0.724927,
2006-03-14, 03:19:00,VALID,916.714,VALID,0,VALID,100,VALID,-0.0339617,VALID,18.3908,VALID,138,VALID,0.325817,
2006-03-14, 03:20:00,VALID,916.713,VALID,0,VALID,100,VALID,0,VALID,18.3779,VALID,138,VALID,0.423633,
2006-03-14, 03:21:00,VALID,916.709,VALID,0,VALID,100,VALID,0,VALID,18.3876,VALID,138,VALID,0.241425,
2006-03-14, 03:22:00,VALID,916.7,VALID,0,VALID,100,VALID,-0.0169808,VALID,18.3841,VALID,138,VALID,0.275441,
2006-03-14, 03:23:00,VALID,916.69,VALID,0,VALID,100,VALID,-0.0509425,VALID,18.3813,VALID,138,VALID,0.541481,
2006-03-14, 03:24:00,VALID,916.697,VALID,0,VALID,100,VALID,-0.0169808,VALID,18.3645,VALID,136,VALID,0.5,
2006-03-14, 03:25:00,VALID,916.697,VALID,0,VALID,100,VALID,-0.0509425,VALID,18.3846,VALID,135,VALID,0.653274,
2006-03-14, 03:26:00,VALID,916.707,VALID,0,VALID,100,VALID,-0.0339617,VALID,18.4069,VALID,135,VALID,0.800409,
2006-03-14, 03:27:00,VALID,916.703,VALID,0,VALID,100,VALID,-0.0509425,VALID,18.4395,VALID,135,VALID,0.824886,
2006-03-14, 03:28:00,VALID,916.708,VALID,0,VALID,100,VALID,-0.0169808,VALID,18.4619,VALID,135,VALID,0.705171,
2006-03-14, 03:29:00,VALID,916.715,VALID,0,VALID,100,VALID,-0.0339617,VALID,18.4646,VALID,135,VALID,0.625727,
2006-03-14, 03:30:00,VALID,916.727,VALID,0,VALID,100,VALID,-0.0339617,VALID,18.4847,VALID,136,VALID,0.698847,
2006-03-14, 03:31:00,VALID,916.726,VALID,0,VALID,100,VALID,-0.0339617,VALID,18.4808,VALID,161,VALID,0.664453,
2006-03-14, 03:32:00,VALID,916.747,VALID,0,VALID,100,VALID,-0.0169808,VALID,18.4582,VALID,164,VALID,0.870458,
2006-03-14, 03:33:00,VALID,916.761,VALID,0,VALID,100,VALID,-0.0339617,VALID,18.4651,VALID,156,VALID,0.530705,
2006-03-14, 03:34:00,VALID,916.769,VALID,0,VALID,100,VALID,0,VALID,18.4745,VALID,156,VALID,0.622768,
2006-03-14, 03:35:00,VALID,916.756,VALID,0,VALID,100,VALID,-0.0339617,VALID,18.4875,VALID,151,VALID,0.389062,
2006-03-14, 03:36:00,VALID,916.759,VALID,0,VALID,100,VALID,-0.0509425,VALID,18.5036,VALID,142,VALID,0.657158,
2006-03-14, 03:37:00,VALID,916.737,VALID,0,VALID,100,VALID,-0.0509425,VALID,18.5098,VALID,142,VALID,0.557106,
2006-03-14, 03:38:00,VALID,916.735,VALID,0,VALID,100,VALID,-0.0169808,VALID,18.5128,VALID,138,VALID,0.563194,